User: anonymous   Login
Location: Alfortville
(48.8058°N, 2.4204°E)
Time: 14:29:23
(UTC+00:00)
Language:

Cosmos 1626 Rocket - Orbit

View from above orbital plane
View from above orbital plane
View from above satellite
View from above satellite

Ground track
Ground track

The orbit data is extracted from the following two-line orbital elements,

1 15495U 85009B   22020.13208688  .00000197  00000-0  20682-4 0  9997
2 15495  82.5224  55.4915 0019790 189.4351 170.6496 14.83952539998799
Epoch (UTC): 20 January 2022 03:10:12
Eccentricity: 0.0019790
inclination: 82.5224°
perigee height: 603 km
apogee height: 631 km
right ascension of ascending node: 55.4915°
argument of perigee: 189.4351°
revolutions per day: 14.83952539
mean anomaly at epoch: 170.6496°
orbit number at epoch: 99879

The dashed part of the orbit path shows where the satellite is in the earth's shadow,  

DLR